#timestamp,LO_Frequency,Hit,StdDev 
1512255615.0,286047002.8,N
1512255615.9,286047002.8,N
1512255635.8,286046999.9,N
1512255655.6,286047000.2,N
1512255675.5,286047000.1,N
1512255695.3,286047002.8,N
1512255715.1,286047002.7,N
1512255735.9,286047002.2,N
1512255755.7,286047002.7,N
1512255775.6,286046998.2,N
1512255795.4,286047000.8,N
1512255815.2,286046999.2,N
1512255835.1,286047008.4,Y
1512255836.0,286047008.4,P
1512255855.8,286047011.2,N
1512255875.6,286047013.5,N
1512255895.5,286047019.8,Y
1512255915.3,286047009.2,P
1512255935.2,286047005.7,P
1512255955.9,286047001.0,N
1512255975.7,286046999.4,N
1512255995.6,286046996.7,N
1512256015.4,286046999.5,N
1512256035.3,286046997.6,N
1512256055.1,286046997.8,N
1512256056.0,286046997.8,N
1512256075.8,286046997.7,N
1512256095.7,286046997.9,N
1512256115.5,286046995.5,N
1512256135.3,286046996.3,N
1512256155.2,286046995.1,N
1512256175.0,286046991.7,N
1512256175.9,286046991.7,N
1512256195.8,286046993.0,N
1512256215.6,286046992.3,N
1512256235.4,286046992.1,N
1512256255.3,286046998.3,N
1512256275.1,286047006.0,N
1512256295.9,286047011.9,N
1512256315.7,286047013.6,N
1512256335.5,286047015.9,N
1512256355.4,286047021.0,Y
1512256375.2,286047020.0,P
1512256395.0,286047009.8,N
1512256395.9,286047009.8,N
1512256415.8,286047006.1,N
1512256435.6,286047007.6,N
1512256455.5,286047003.6,N
1512256475.3,286047003.7,N
1512256495.1,286047002.8,N
1512256515.9,286046998.8,N
1512256535.7,286046997.4,N
1512256555.6,286046995.2,N
1512256575.4,286046994.0,N
1512256595.2,286046994.2,N
1512256615.1,286046993.3,N
1512256616.0,286046993.3,N
1512256635.8,286046994.8,N
1512256655.6,286046992.9,N
1512256675.5,286046993.0,N
1512256695.3,286046992.5,N
1512256715.2,286046994.7,N
1512256735.9,286046990.1,N
1512256755.7,286046990.2,N
1512256775.6,286046990.2,N
1512256795.4,286046991.4,N
1512256815.2,286046988.8,N
1512256835.1,286046989.7,N
1512256836.0,286046989.7,N
1512256855.8,286046989.0,N
1512256875.7,286046989.7,N
1512256895.5,286046989.2,N
1512256915.3,286046989.4,N
1512256935.2,286046989.1,N
1512256955.0,286046989.9,N
1512256955.9,286046989.9,N
1512256975.8,286046987.1,N
1512256995.6,286046987.1,N
1512257015.4,286046987.7,Y
1512257035.3,286046993.6,P
1512257055.1,286046995.1,P
1512257075.8,286046997.9,N
1512257095.7,286046994.9,N
1512257115.5,286046995.5,N
1512257135.4,286046997.6,N
1512257155.2,286046996.0,N
1512257175.0,286046993.3,Y
1512257175.9,286046993.3,P
1512257195.8,286047000.9,N
1512257215.6,286046998.1,N
1512257235.5,286047000.7,N
1512257255.3,286047000.6,N
1512257275.1,286047000.4,N
1512257295.9,286047002.8,N
1512257315.7,286047000.5,N
1512257335.5,286046999.7,N
1512257355.4,286046999.8,N
1512257375.2,286047002.2,N
1512257395.1,286047001.1,N
1512257396.0,286047001.1,N
1512257415.8,286046998.1,N
1512257435.6,286047001.0,N
1512257455.5,286046999.3,N
1512257475.3,286046998.5,N
1512257495.2,286046998.5,N
1512257515.9,286047000.1,N
1512257535.7,286047002.5,N
1512257555.6,286047002.7,N
1512257575.4,286046999.7,N
1512257595.2,286047002.5,N
1512257615.1,286047000.2,N
1512257616.0,286047000.2,N
1512257635.8,286046999.9,N
1512257655.7,286047002.1,N
1512257675.5,286047000.2,N
1512257695.3,286047002.8,N
1512257715.2,286047002.1,N
1512257735.0,286047002.6,N
1512257735.9,286047002.6,N
1512257755.7,286047000.1,N
1512257775.6,286047000.1,N
1512257795.4,286047000.4,N
1512257815.3,286047002.2,N
1512257835.1,286047002.2,N
1512257836.0,286047002.2,N
1512257855.8,286047001.3,N
1512257875.7,286047004.0,N
1512257895.5,286047003.8,N
1512257915.3,286047003.6,N
1512257935.2,286047001.3,N
1512257955.0,286047004.0,N
1512257955.9,286047004.0,N
1512257975.8,286047001.8,N
1512257995.6,286047001.4,N
1512258015.4,286047002.0,N
1512258035.3,286047001.4,N
1512258055.1,286047001.3,N
1512258075.9,286047004.1,Y
1512258095.7,286046999.8,P
1512258115.5,286047001.4,N
1512258135.4,286047004.2,P
1512258155.2,286047003.1,N
1512258175.0,286047003.7,N
1512258175.9,286047003.7,N
1512258195.8,286047001.9,N
1512258215.6,286047001.9,N
1512258235.5,286047001.9,N
1512258255.3,286047001.5,N
1512258275.1,286047000.0,N
1512258295.9,286047001.0,N
1512258315.7,286046998.4,N
1512258335.5,286047000.4,N
1512258355.4,286046999.9,N
1512258375.2,286047002.3,N
1512258395.1,286047003.5,N
1512258396.0,286047003.5,N
1512258415.8,286047004.0,N
1512258435.6,286047000.1,N
1512258455.5,286047002.6,N
1512258475.3,286047002.0,N
1512258495.2,286047001.8,N
1512258515.9,286047000.1,N
1512258535.7,286047000.3,N
1512258555.6,286047001.1,N
1512258575.4,286047000.9,N
1512258595.2,286047000.2,N
1512258615.1,286047001.0,N
1512258616.0,286047001.0,N
1512258635.8,286047002.1,N
1512258655.7,286047002.0,N
1512258675.5,286047002.5,N
1512258695.3,286047000.3,N
1512258715.2,286047001.5,N
1512258735.9,286047001.4,N
1512258755.7,286047001.7,N
1512258775.6,286047002.1,N
1512258795.4,286047000.6,N
1512258815.3,286047000.3,N
1512258835.1,286047000.9,N
1512258836.0,286047000.9,N
1512258855.8,286047000.3,N
1512258875.7,286047001.9,N
1512258895.5,286047001.9,N
1512258915.3,286047002.5,N
1512258935.2,286047002.8,N
1512258955.0,286047002.6,N
1512258955.9,286047002.6,N
1512258975.8,286047002.2,N
1512258995.6,286047002.6,Y
1512259015.4,286047000.1,P
1512259035.3,286047000.2,N
1512259055.1,286047002.5,P
1512259075.8,286047002.7,N
1512259095.7,286047001.9,N
1512259115.5,286047002.4,N
1512259135.4,286047000.2,N
1512259155.2,286047000.6,N
1512259175.0,286047000.3,N
1512259175.9,286047000.3,N
1512259195.8,286047000.4,N
